566  
ASUS41 KBOX 222210  
RWRBOX  
 
REGIONAL WEATHER ROUNDUP  
NATIONAL WEATHER SERVICE TAUNTON MA  
600 PM EDT FRI SEP 22 2017  
 
NOTE: "FAIR" INDICATES FEW OR NO CLOUDS BELOW 12,000 FEET WITH NO  
SIGNIFICANT WEATHER AND/OR S TO VISIBILITY
.  
 
MAZALL-222300-  
EASTERN MASSACHUSETTS  
 
CITY SKY/WX TMP DP RH WIND PRES REMARKS
 
BOSTON DRIZZLE 60 58 92 N23G35 29.99F FOG  
BEVERLY LGT RAIN 59 57 93 N14G32 30.01S FOG  
LAWRENCE CLOUDY 63 60 90 NE14G21 30.05S  
BEDFORD LGT RAIN 61 58 90 NE10 30.01S FOG  
BLUE HILL N/A 58 56 93 NE20G32 29.98S  
NORWOOD CLOUDY 62 60 93 N14G24 29.99S FOG  
MARSHFIELD FOG 61 61 100 N16G23 29.96R VSB 1  
PLYMOUTH LGT RAIN 60 57 89 N24G37 29.93F FOG  
TAUNTON LGT RAIN 60 57 89 N12G28 29.94S FOG  
NEW BEDFORD LGT RAIN 60 58 92 N12G28 29.90S FOG  

 
 
MAZALL-222300-  
CAPE COD AND THE ISLANDS  
 
CITY SKY/WX TMP DP RH WIND PRES REMARKS
 
FALMOUTH FOG 59 59 100 N14G25 29.89 VSB 1/2  
HYANNIS LGT RAIN 62 61 96 NE17G25 29.86R FOG  
CHATHAM LGT RAIN 62 62 100 NE16G29 29.86S FOG  
PROVINCETOWN LGT RAIN 59 58 96 NE24G32 29.91F FOG  
NANTUCKET LGT RAIN 62 62 100 NE26G35 29.79S FOG  
MARTHAS VNYRD LGT RAIN 63 61 93 N22G29 29.84S VSB 1  

 
 
MAZALL-222300-  
CENTRAL AND WESTERN MASSACHUSETTS  
 
CITY SKY/WX TMP DP RH WIND PRES REMARKS
 
WORCESTER CLOUDY 61 55 81 N9 30.02S  
FITCHBURG CLOUDY 69 56 62 NE13G21 30.04R  
ORANGE CLOUDY 70 54 56 N15G24 30.03S  
SPRINGFIELD MOCLDY 73 56 55 NE16 29.98R  
WESTFIELD MOCLDY 75 52 44 N12 29.99R  
NORTH ADAMS CLOUDY 72 59 63 CALM 30.03F  
PITTSFIELD CLOUDY 71 55 56 N7 30.03F  

 
 
RIZALL-222300-  
RHODE ISLAND  
 
CITY SKY/WX TMP DP RH WIND PRES REMARKS
 
PROVIDENCE LGT RAIN 61 60 97 N21G32 29.96R FOG  
NEWPORT LGT RAIN 60 60 100 N17G29 29.91R FOG  
BLOCK ISLAND CLOUDY 61 58 90 N24G31 29.89S  
SMITHFIELD LGT RAIN 60 59 96 N20 29.98S FOG  
WESTERLY CLOUDY 64 59 83 N14G32 29.93R  

 
 
CTZALL-222300-  
CONNECTICUT  
 
CITY SKY/WX TMP DP RH WIND PRES REMARKS
 
BRADLEY INTL MOCLDY 75 56 51 N16G28 29.98R  
HARTFORD CLOUDY 75 58 55 N12 29.96R  
BRIDGEPORT CLOUDY 79 59 50 N13G26 29.93R  
DANBURY PTCLDY 78 58 49 N10 29.97S  
GROTON CLOUDY 66 59 78 N22G29 29.92R  
NEW HAVEN MOCLDY 77 56 48 N16 29.93R  
CHESTER CLOUDY 72 61 68 N9G21 29.94F  
MERIDEN CLOUDY 75 56 51 N10G18 29.95R  
WILLIMANTIC CLOUDY 69 59 70 N17G23 29.97R  
OXFORD MOCLDY 74 60 61 N12 29.98R  

 
 
MEZ002-015-021-024-NHZ003-005-008-011-012-014-VTZ005-008-222300-  
NORTHERN NEW ENGLAND  
 
CITY SKY/WX TMP DP RH WIND PRES REMARKS
 
PORTLAND ME MOCLDY 69 50 50 NE8 30.06R  
BANGOR ME PTCLDY 75 45 34 N7 30.08S  
CONCORD NH CLOUDY 70 49 47 N7 30.05S  
MANCHESTER NH CLOUDY 69 53 56 NE9 30.03R  
NASHUA NH CLOUDY 68 54 60 NE10 30.04S  
PORTSMOUTH NH CLOUDY 67 53 59 NE9 30.03S  
JAFFREY NH CLOUDY 67 53 61 VRB3 30.06R  
KEENE NH CLOUDY 71 53 52 NE3 30.04  
BURLINGTON VT PTCLDY 76 52 43 NW8 30.06F  
MT. WASHINGTON FOG 52 52 100 E14 N/A VSB 1/16  

 
 
NYZ052-076-222300-  
EASTERN NEW YORK  
 
CITY SKY/WX TMP DP RH WIND PRES REMARKS
 
ALBANY PTCLDY 77 48 35 N5 30.03F  
NEW YORK CITY PTCLDY 79 58 48 N14 29.93S  

 
 
ANZALL-222300-  
MARINE OBSERVATIONS  
 
STATION/POSITION TIME TEMP WIND PRES VSBY WAVE
 
AIR SEA DIR/SP/G HT/PER  
(UTC) (F) (DEG/KT/KT) (MB) (MI) (FT/S)  
BOSTON BUOY 2150 59 58 20/ 27/ 31 1014.1F 12/10  
BUZZARDS BAY 2100 60 10/ 30/ 33 1011.0R  
NANTUCKET SOUND 2150 61 61 30/ 27/ 31 1009.1R 5/ 5  
MASS BAY-STELLWA 2104 60 59 30/ 25/ 31 1014.7R 15/11  
ISLE OF SHOALS 2100 61 40/ 25/ 31 1016.1F  
S OF BLOCK IS NOT AVBL  

 
   
.....................KEY......................
 
 
SKY/WX - SKY CONDITION/PRESENT WEATHER  
TMP - TEMPERATURE IN FAHRENHEIT  
DWPT - DEWPOINT IN FAHRENHEIT  
RH - RELATIVE HUMIDITY IN PERCENT  
WIND - DIRECTION AND SPEED IN MPH  
PRES - MEAN SEA LEVEL PRESSURE IN INCHES OF HG  
WCI - WIND CHILL INDEX  
VSB - VISIBILITY IN MILES  
HX - HEAT INDEX  
TC - TEMPERATURE IN CELSIUS  
VRB - VARIABLE WIND DIRECTION  
N/A - NOT AVAILABLE  
 
 
CLICK HERE TO GO TO PREVIOUS BULLETINS.

The Nexlab MA Page
The Nexlab RI Page
The Nexlab NH Page
The Nexlab CT Page Main Text Page